Location: ScottNC Observatory
(36.0892°N, 80.4832°W)
Time: 21:49:32
(UTC-04:00)

OTV 5 (USA 277) - Visible Passes

Search period start: 24 September 2018 00:00
Search period end: 04 October 2018 00:00
Orbit: 387 x 394 km, 54.5° (Epoch: 08 September)

Date Brightness Start Highest point End Pass type
(mag) Time Alt. Az. Time Alt. Az. Time Alt. Az.
24 Sep ? 05:58:20 10° SE 05:58:43 10° ESE 05:59:07 10° ESE visible
25 Sep ? 06:34:48 10° SSW 06:37:56 57° SE 06:41:04 10° NE visible
26 Sep ? 05:39:57 14° S 05:41:44 21° SE 05:44:16 10° ENE visible
27 Sep ? 06:18:55 18° WSW 06:21:07 60° NW 06:24:17 10° NE visible
28 Sep ? 05:25:17 43° E 05:25:17 43° E 05:27:54 10° NE visible
29 Sep ? 06:03:56 28° NW 06:04:22 29° NW 06:07:14 10° NNE visible
30 Sep ? 05:10:04 19° NE 05:10:04 19° NE 05:11:09 10° NE visible
01 Oct ? 05:48:30 16° NNW 05:48:30 16° NNW 05:49:54 10° N visible
